"2016-02-19 00:00:00",1386651,20.41,226.7,3.592,0.775,18.92,106.5932,16.15,17.13,16.57,0,110.7,13.12,16.96,188.7
"2016-02-19 00:00:30",1386652,19.07,225.3,3.659,1.092,18.88,106.5875,16.14,17.12,16.63,0,110.7,13.12,16.95,187.3
"2016-02-19 00:01:00",1386653,18.45,228.4,1.723,0.453,18.78,106.5794,16.12,17.1,16.56,0,110.7,13.12,16.93,190.4
"2016-02-19 00:01:30",1386654,20.54,228.5,2.44,0.716,18.82,106.5665,16.08,17.09,16.54,0,110.7,13.12,16.89,190.5
"2016-02-19 00:02:00",1386655,20.08,231.9,3.483,1.011,18.76,106.5664,16.08,17.1,16.62,0,110.7,13.12,16.89,193.9
"2016-02-19 00:02:30",1386656,21.32,231.2,2.752,0.782,18.85,106.5682,16.09,17.08,16.63,0,110.7,13.12,16.90,193.2
"2016-02-19 00:03:00",1386657,19.46,231.1,3.677,0.665,18.84,106.5727,16.1,17.08,16.62,0,110.7,13.12,16.91,193.1
"2016-02-19 00:03:30",1386658,19.46,231,3.424,1.054,18.81,106.5787,16.12,17.06,16.71,0,110.7,13.12,16.92,193.0
"2016-02-19 00:04:00",1386659,19.67,230.7,3.771,0.57,18.84,106.5808,16.12,17.07,16.67,0,110.7,13.12,16.93,192.7
"2016-02-19 00:04:30",1386660,19.12,231.8,2.225,0.505,18.85,106.5817,16.12,17.06,16.69,0,110.7,13.12,16.93,193.8
"2016-02-19 00:05:00",1386661,19.25,236.1,1.606,0.473,18.91,106.5796,16.12,17.04,16.74,0,110.7,13.12,16.93,198.1
"2016-02-19 00:05:30",1386662,19.5,238.2,2.599,0.885,18.96,106.5739,16.1,17.04,16.65,0,110.7,13.12,16.91,200.2
"2016-02-19 00:06:00",1386663,18.16,239.1,2.91,1.222,18.85,106.57,16.09,17.02,16.73,0,110.7,13.12,16.90,201.1
"2016-02-19 00:06:30",1386664,15.53,233.4,4.57,0.97,18.75,106.5624,16.07,17.02,16.84,0,110.7,13.12,16.88,195.4
"2016-02-19 00:07:00",1386665,18.26,234.5,3.166,0.654,18.81,106.5568,16.06,17.02,16.86,0,110.7,13.12,16.87,196.5
"2016-02-19 00:07:30",1386666,16.99,234.5,1.416,0.757,18.85,106.5563,16.06,17.02,16.82,0,110.7,13.12,16.87,196.5
"2016-02-19 00:08:00",1386667,16.33,233.7,2.553,0.65,18.79,106.5563,16.06,17.02,16.82,0,110.7,13.12,16.87,195.7
"2016-02-19 00:08:30",1386668,16.78,230.7,3.787,0.789,18.89,106.5563,16.06,17.01,16.84,0,110.7,13.12,16.87,192.7
"2016-02-19 00:09:00",1386669,15.97,227.9,2.938,1.006,18.87,106.556,16.06,17,16.79,0,110.7,13.12,16.87,189.9
"2016-02-19 00:09:30",1386670,15.5,230.5,5.438,0.787,18.8,106.5549,16.05,17,16.88,0,110.7,13.12,16.86,192.5
"2016-02-19 00:10:00",1386671,17.07,231.7,3.622,0.619,18.76,106.5501,16.04,16.98,16.98,0,110.7,13.12,16.85,193.7
"2016-02-19 00:10:30",1386672,17.54,230.7,2.525,1.12,18.77,106.5467,16.03,16.98,16.97,0,110.7,13.12,16.84,192.7
"2016-02-19 00:11:00",1386673,16.3,236.3,2.956,0.864,18.8,106.5425,16.02,16.98,16.97,0,110.7,13.12,16.83,198.3
"2016-02-19 00:11:30",1386674,18.18,232.4,1.597,0.674,18.9,106.5275,15.98,16.97,16.91,0,110.7,13.12,16.79,194.4
"2016-02-19 00:12:00",1386675,17.86,230,2.812,0.88,18.94,106.523,15.97,16.97,16.82,0,110.7,13.12,16.78,192.0
"2016-02-19 00:12:30",1386676,17.94,233.7,3.648,1.418,18.85,106.5225,15.97,16.96,16.98,0,110.7,13.12,16.78,195.7
"2016-02-19 00:13:00",1386677,17.95,231.8,1.895,0.92,18.84,106.5225,15.97,16.96,16.95,0,110.7,13.12,16.78,193.8
"2016-02-19 00:13:30",1386678,16.17,229.6,3.156,0.969,18.84,106.5225,15.97,16.94,17.06,0,110.7,13.12,16.78,191.6
"2016-02-19 00:14:00",1386679,17.83,231.6,3.391,0.585,18.86,106.5225,15.97,16.95,17.02,0,110.7,13.12,16.78,193.6
"2016-02-19 00:14:30",1386680,18.45,232.2,1.364,0.253,18.96,106.5225,15.97,16.95,16.93,0,110.7,13.12,16.78,194.2
"2016-02-19 00:15:00",1386681,18.73,231.3,1.561,0.347,18.91,106.5225,15.97,16.94,16.95,0,110.7,13.13,16.78,193.3
"2016-02-19 00:15:30",1386682,18.57,233.2,1.47,0.781,18.89,106.5208,15.97,16.93,16.95,0,110.6,13.13,16.77,195.2
"2016-02-19 00:16:00",1386683,19.65,232,1.105,0.266,18.87,106.5174,15.96,16.92,16.96,0,110.6,13.13,16.77,194.0
"2016-02-19 00:16:30",1386684,19.18,229.1,1.549,0.85,18.94,106.5146,15.95,16.92,16.98,0,110.6,13.13,16.76,191.1
"2016-02-19 00:17:00",1386685,17.73,230.4,1.493,0.316,18.93,106.5135,15.95,16.91,16.94,0,110.6,13.13,16.76,192.4
"2016-02-19 00:17:30",1386686,16.74,229.2,1.436,0.507,18.91,106.5092,15.94,16.92,16.99,0,110.6,13.13,16.75,191.2
"2016-02-19 00:18:00",1386687,15.77,224.2,4.295,0.616,18.91,106.5025,15.92,16.91,16.96,0,110.6,13.13,16.73,186.2
"2016-02-19 00:18:30",1386688,14.16,240.4,17.48,1.798,19.36,106.5062,15.93,16.9,15.75,0,110.6,13.13,16.74,202.4
"2016-02-19 00:19:00",1386689,19.34,260.2,8.33,1.573,19.2,106.5185,15.96,16.9,15.51,0,110.6,13.13,16.77,222.2
"2016-02-19 00:19:30",1386690,20.7,238.8,4.349,0.773,18.92,106.5276,15.98,16.91,16.08,0,110.6,13.13,16.79,200.8
"2016-02-19 00:20:00",1386691,17.72,236.7,3.149,0.923,18.79,106.5288,15.99,16.93,16.66,0,110.6,13.13,16.80,198.7
"2016-02-19 00:20:30",1386692,17.2,233.2,1.787,0.36,18.79,106.53,15.99,16.91,16.89,0,110.6,13.13,16.80,195.2
"2016-02-19 00:21:00",1386693,17.02,230.1,2.458,0.405,18.88,106.5306,15.99,16.94,16.86,0,110.6,13.13,16.80,192.1
"2016-02-19 00:21:30",1386694,16.17,226.2,1.33,0.489,18.81,106.5321,16,16.93,16.89,0,110.6,13.13,16.80,188.2
"2016-02-19 00:22:00",1386695,16.24,228.5,2.417,0.691,18.86,106.5336,16,16.94,16.85,0,110.6,13.13,16.81,190.5
"2016-02-19 00:22:30",1386696,16.66,225.2,1.123,0.636,18.91,106.5312,15.99,16.94,16.86,0,110.6,13.14,16.80,187.2
"2016-02-19 00:23:00",1386697,15.37,226,1.578,0.55,18.91,106.5312,15.99,16.93,16.79,0,110.6,13.14,16.80,188.0
"2016-02-19 00:23:30",1386698,15.06,227,2.266,0.346,18.81,106.5335,16,16.93,16.95,0,110.6,13.14,16.81,189.0
"2016-02-19 00:24:00",1386699,14.04,229.8,2.465,0.684,18.72,106.5272,15.98,16.92,17.04,0,110.6,13.14,16.79,191.8
"2016-02-19 00:24:30",1386700,16.73,231.1,6.627,2.406,18.97,106.515,15.95,16.93,16.81,0,110.6,13.13,16.76,193.1
"2016-02-19 00:25:00",1386701,15.62,250.6,8.19,2.147,19.1,106.516,15.95,16.92,16.14,0,110.6,13.13,16.76,212.6
"2016-02-19 00:25:30",1386702,18.91,250,7.99,1.294,18.82,106.5178,15.96,16.91,16.61,0,110.6,13.13,16.77,212.0
"2016-02-19 00:26:00",1386703,16.2,235.7,2.822,0.798,18.76,106.5217,15.97,16.91,16.93,0,110.6,13.13,16.78,197.7
"2016-02-19 00:26:30",1386704,16.5,233.9,2.184,0.377,18.88,106.5241,15.98,16.9,16.89,0,110.6,13.13,16.78,195.9
"2016-02-19 00:27:00",1386705,16.15,230.2,1.795,0.763,18.91,106.5247,15.98,16.9,16.91,0,110.6,13.13,16.78,192.2
"2016-02-19 00:27:30",1386706,16.34,231.9,1.536,0.425,18.9,106.5244,15.98,16.9,16.97,0,110.6,13.13,16.78,193.9
"2016-02-19 00:28:00",1386707,16.44,230.6,1.296,0.403,18.88,106.5202,15.97,16.89,16.98,0,110.6,13.13,16.77,192.6
"2016-02-19 00:28:30",1386708,15.91,225.7,1.817,0.608,18.88,106.5159,15.95,16.89,16.98,0,110.6,13.13,16.76,187.7
"2016-02-19 00:29:00",1386709,16.09,225.4,1.116,0.301,18.94,106.5075,15.93,16.88,16.94,0,110.6,13.13,16.74,187.4
"2016-02-19 00:29:30",1386710,15.28,224,1.432,0.504,18.95,106.4934,15.9,16.87,16.69,0,110.6,13.13,16.70,186.0
"2016-02-19 00:30:00",1386711,15.02,223.6,2.251,0.399,18.93,106.4912,15.89,16.87,16.9,0,110.6,13.13,16.70,185.6
"2016-02-19 00:30:30",1386712,16.11,222.9,1.647,0.739,19.02,106.4909,15.89,16.87,16.91,0,110.6,13.13,16.70,184.9
"2016-02-19 00:31:00",1386713,16.66,223.6,1.661,0.377,18.9,106.4909,15.89,16.86,17,0,110.6,13.14,16.70,185.6
"2016-02-19 00:31:30",1386714,16.37,225.2,0.858,0.406,18.94,106.4909,15.89,16.86,16.97,0,110.6,13.14,16.70,187.2
"2016-02-19 00:32:00",1386715,16.25,227.5,1.014,0.342,18.93,106.4909,15.89,16.85,16.99,0,110.6,13.14,16.70,189.5
"2016-02-19 00:32:30",1386716,15.8,228.2,1.406,0.28,18.94,106.4909,15.89,16.85,16.9,0,110.6,13.14,16.70,190.2
"2016-02-19 00:33:00",1386717,14.72,229.1,3.162,0.385,18.86,106.4909,15.89,16.84,16.99,0,110.6,13.14,16.70,191.1
"2016-02-19 00:33:30",1386718,14.91,232.3,2.331,0.741,18.81,106.4878,15.88,16.84,17.04,0,110.6,13.14,16.69,194.3
"2016-02-19 00:34:00",1386719,14.32,232.1,3.052,0.34,18.75,106.483,15.87,16.84,17.1,0,110.6,13.14,16.68,194.1
"2016-02-19 00:34:30",1386720,14.56,229.7,1.636,0.375,18.81,106.4788,15.86,16.82,17.1,0,110.6,13.14,16.67,191.7
"2016-02-19 00:35:00",1386721,13.6,230.9,1.707,0.413,18.69,106.4664,15.83,16.82,17.19,0,110.6,13.14,16.63,192.9
"2016-02-19 00:35:30",1386722,14.32,234,4.555,0.945,18.85,106.4576,15.81,16.8,17.18,0,110.6,13.14,16.61,196.0
"2016-02-19 00:36:00",1386723,13.77,228.4,2.824,0.72,18.94,106.4571,15.8,16.8,16.86,0,110.6,13.14,16.61,190.4
"2016-02-19 00:36:30",1386724,13.93,228.7,3.28,0.859,18.76,106.4571,15.8,16.8,17.15,0,110.6,13.14,16.61,190.7
"2016-02-19 00:37:00",1386725,14.56,228.2,1.503,0.354,18.82,106.4571,15.8,16.8,17.13,0,110.6,13.14,16.61,190.2
"2016-02-19 00:37:30",1386726,14.29,229.1,1.215,0.47,18.84,106.4554,15.8,16.76,17.1,0,110.6,13.15,16.61,191.1
"2016-02-19 00:38:00",1386727,15.03,227.3,1.911,0.396,18.83,106.4486,15.78,16.78,17.08,0,110.6,13.15,16.59,189.3
"2016-02-19 00:38:30",1386728,13.9,225.7,2.996,1.076,18.74,106.4399,15.76,16.77,17.11,0,110.6,13.15,16.57,187.7
"2016-02-19 00:39:00",1386729,13.42,224.1,1.803,0.502,18.71,106.4255,15.72,16.75,17.23,0,110.6,13.15,16.53,186.1
"2016-02-19 00:39:30",1386730,16.09,223.5,1.792,0.812,18.9,106.4236,15.72,16.75,17.19,0,110.6,13.15,16.52,185.5
"2016-02-19 00:40:00",1386731,15.34,221.7,2.206,0.3,18.97,106.4232,15.72,16.73,17.05,0,110.6,13.15,16.52,183.7
"2016-02-19 00:40:30",1386732,14.83,226.2,3.032,0.493,18.98,106.4239,15.72,16.73,16.78,0,110.6,13.15,16.53,188.2
"2016-02-19 00:41:00",1386733,15.59,229.8,1.549,0.334,18.84,106.425,15.72,16.73,16.93,0,110.6,13.15,16.53,191.8
"2016-02-19 00:41:30",1386734,15.2,230.8,2.309,0.806,18.74,106.4253,15.72,16.72,17.09,0,110.6,13.15,16.53,192.8
"2016-02-19 00:42:00",1386735,15.47,227.3,3.434,0.821,18.83,106.4257,15.72,16.7,16.98,0,110.6,13.15,16.53,189.3
"2016-02-19 00:42:30",1386736,14.58,226.6,3.32,0.392,18.83,106.4265,15.73,16.71,16.98,0,110.6,13.14,16.53,188.6
"2016-02-19 00:43:00",1386737,15.85,229.9,2.567,0.909,18.8,106.4269,15.73,16.72,17.05,0,110.6,13.14,16.53,191.9
"2016-02-19 00:43:30",1386738,16.85,231.2,2.853,0.635,18.83,106.427,15.73,16.7,17.01,0,110.6,13.14,16.53,193.2
"2016-02-19 00:44:00",1386739,16.87,236.3,1.047,0.425,19.08,106.4276,15.73,16.71,16.84,0,110.6,13.14,16.54,198.3
"2016-02-19 00:44:30",1386740,15.91,233.1,1.38,0.735,19.01,106.4316,15.74,16.7,16.79,0,110.6,13.14,16.55,195.1
"2016-02-19 00:45:00",1386741,14.63,233.8,4.487,1.038,19.16,106.432,15.74,16.7,16.47,0,110.6,13.14,16.55,195.8
"2016-02-19 00:45:30",1386742,14.69,231.2,2.834,0.464,19.01,106.4349,15.75,16.71,16.3,0,110.6,13.14,16.55,193.2
"2016-02-19 00:46:00",1386743,13.36,232.4,3.17,0.734,19.17,106.4352,15.75,16.73,16.14,0,110.6,13.14,16.55,194.4
"2016-02-19 00:46:30",1386744,13.77,226.2,1.073,0.467,18.92,106.4376,15.75,16.72,16.4,0,110.6,13.14,16.56,188.2
"2016-02-19 00:47:00",1386745,15.01,225.4,1.452,0.341,18.93,106.4528,15.79,16.73,16.6,0,110.6,13.14,16.60,187.4
"2016-02-19 00:47:30",1386746,14.4,224.9,1.23,0.494,18.78,106.4641,15.82,16.76,16.74,0,110.6,13.14,16.63,186.9
"2016-02-19 00:48:00",1386747,15.29,224.7,2.282,0.923,18.79,106.4669,15.83,16.76,16.83,0,110.6,13.14,16.64,186.7
"2016-02-19 00:48:30",1386748,14.85,236.5,5.873,1.072,18.84,106.4701,15.84,16.76,16.58,0,110.6,13.14,16.64,198.5
"2016-02-19 00:49:00",1386749,14.63,229.8,4.191,0.664,18.78,106.474,15.85,16.77,16.61,0,110.6,13.15,16.65,191.8
"2016-02-19 00:49:30",1386750,14.89,231.6,0.887,0.545,18.82,106.4717,15.84,16.78,16.75,0,110.6,13.15,16.65,193.6
"2016-02-19 00:50:00",1386751,15.44,231.2,1.902,0.355,18.91,106.4733,15.85,16.78,16.64,0,110.6,13.15,16.65,193.2
"2016-02-19 00:50:30",1386752,15.97,231.4,2.254,0.498,18.8,106.4723,15.84,16.78,16.6,0,110.6,13.15,16.65,193.4
"2016-02-19 00:51:00",1386753,15.38,234.9,1.608,0.354,19.05,106.4739,15.85,16.79,16.44,0,110.6,13.15,16.65,196.9
"2016-02-19 00:51:30",1386754,15.45,233.2,1.544,0.426,18.91,106.4756,15.85,16.77,16.38,0,110.6,13.15,16.66,195.2
"2016-02-19 00:52:00",1386755,15.25,232.7,1.914,0.44,18.94,106.4809,15.86,16.77,16.42,0,110.6,13.15,16.67,194.7
"2016-02-19 00:52:30",1386756,15.06,234.3,2.3,0.369,18.85,106.4846,15.87,16.79,16.59,0,110.6,13.15,16.68,196.3
"2016-02-19 00:53:00",1386757,15.06,233.1,1.784,0.538,18.82,106.4853,15.88,16.79,16.66,0,110.6,13.15,16.68,195.1
"2016-02-19 00:53:30",1386758,15.83,234.3,1.457,0.596,19,106.4841,15.87,16.79,16.51,0,110.6,13.15,16.68,196.3
"2016-02-19 00:54:00",1386759,15.27,229.5,2.071,0.493,18.86,106.4836,15.87,16.79,16.55,0,110.6,13.15,16.68,191.5
"2016-02-19 00:54:30",1386760,15.36,230,1.462,0.285,18.87,106.4879,15.88,16.81,16.6,0,110.6,13.15,16.69,192.0
"2016-02-19 00:55:00",1386761,15.23,230.5,1.284,0.33,18.89,106.4897,15.89,16.8,16.5,0,110.6,13.15,16.69,192.5
"2016-02-19 00:55:30",1386762,14.48,231.1,1.772,0.381,18.91,106.4888,15.88,16.8,16.43,0,110.6,13.16,16.69,193.1
"2016-02-19 00:56:00",1386763,14.68,231.7,1.843,0.469,19.01,106.4908,15.89,16.8,16.15,0,110.6,13.16,16.70,193.7
"2016-02-19 00:56:30",1386764,14.55,229.7,2.438,0.529,18.82,106.4931,15.9,16.81,16.32,0,110.6,13.16,16.70,191.7
"2016-02-19 00:57:00",1386765,15.05,231.1,1.925,0.617,18.92,106.4931,15.9,16.81,16.35,0,110.6,13.16,16.70,193.1
"2016-02-19 00:57:30",1386766,15,230.1,1.607,0.3,18.86,106.4925,15.89,16.8,16.28,0,110.6,13.16,16.70,192.1
"2016-02-19 00:58:00",1386767,15.47,232.5,2.216,0.429,19.01,106.4928,15.9,16.81,16.14,0,110.6,13.16,16.70,194.5
"2016-02-19 00:58:30",1386768,14.3,235.3,1.699,0.749,19.07,106.4928,15.9,16.81,15.81,0,110.6,13.15,16.70,197.3
"2016-02-19 00:59:00",1386769,14.2,237.9,2.5,0.747,19.09,106.4928,15.9,16.81,15.61,0,110.6,13.16,16.70,199.9
"2016-02-19 00:59:30",1386770,16.78,231.8,1.893,0.585,18.82,106.4931,15.9,16.83,15.98,0,110.6,13.16,16.70,193.8
"2016-02-19 01:00:00",1386771,15.04,230.5,4.129,0.988,18.73,106.4931,15.9,16.82,16.26,0,110.6,13.15,16.70,192.5
"2016-02-19 01:00:30",1386772,15.8,230.2,1.953,0.668,18.76,106.4931,15.9,16.83,16.29,0,110.6,13.15,16.70,192.2
"2016-02-19 01:01:00",1386773,15.81,229.1,1.396,0.49,18.76,106.4931,15.9,16.84,16.36,0,110.6,13.15,16.70,191.1
"2016-02-19 01:01:30",1386774,16.23,228.2,0.973,0.514,18.8,106.4931,15.9,16.85,16.34,0,110.6,13.14,16.70,190.2
"2016-02-19 01:02:00",1386775,15.45,226.6,1.817,0.484,18.73,106.4931,15.9,16.83,16.4,0,110.6,13.14,16.70,188.6
"2016-02-19 01:02:30",1386776,14.63,226.6,3.105,0.574,18.73,106.4928,15.9,16.84,16.48,0,110.6,13.14,16.70,188.6
"2016-02-19 01:03:00",1386777,14.73,229.7,1.35,0.492,18.8,106.49,15.89,16.82,16.38,0,110.6,13.14,16.70,191.7
"2016-02-19 01:03:30",1386778,14.4,229.7,1.98,0.628,18.76,106.4798,15.86,16.81,16.4,0,110.6,13.14,16.67,191.7
"2016-02-19 01:04:00",1386779,14.44,229,2.207,0.537,18.71,106.4635,15.82,16.81,16.45,0,110.6,13.14,16.63,191.0
"2016-02-19 01:04:30",1386780,14.88,228.3,1.853,0.255,18.82,106.4592,15.81,16.8,16.37,0,110.6,13.14,16.62,190.3
"2016-02-19 01:05:00",1386781,14.89,229.4,1.457,0.28,18.72,106.4592,15.81,16.79,16.42,0,110.6,13.14,16.62,191.4
"2016-02-19 01:05:30",1386782,14.38,231.1,3.353,0.824,19.06,106.4592,15.81,16.79,16.06,0,110.6,13.15,16.62,193.1
"2016-02-19 01:06:00",1386783,14.87,228.7,1.784,0.345,18.85,106.4592,15.81,16.78,16.08,0,110.6,13.16,16.62,190.7
"2016-02-19 01:06:30",1386784,13.71,229.6,3.172,0.644,19.02,106.4592,15.81,16.77,16.06,0,110.6,13.16,16.62,191.6
"2016-02-19 01:07:00",1386785,12.06,229.5,6.299,0.774,19.03,106.459,15.81,16.77,15.7,0,110.6,13.16,16.62,191.5
"2016-02-19 01:07:30",1386786,12.25,231.5,6.972,0.958,18.73,106.4592,15.81,16.76,16.08,0,110.6,13.16,16.62,193.5
"2016-02-19 01:08:00",1386787,13.57,227.8,3.541,1.514,18.91,106.4573,15.8,16.76,15.93,0,110.6,13.16,16.61,189.8
"2016-02-19 01:08:30",1386788,13.54,230.4,3.448,0.466,18.58,106.4553,15.8,16.75,16.34,0,110.6,13.16,16.61,192.4
"2016-02-19 01:09:00",1386789,13.84,230.9,2.512,0.303,18.76,106.4502,15.79,16.76,16.33,0,110.6,13.16,16.59,192.9
"2016-02-19 01:09:30",1386790,14.18,224.6,3.292,0.427,18.73,106.4435,15.77,16.75,16.33,0,110.6,13.16,16.58,186.6
"2016-02-19 01:10:00",1386791,14.88,226.9,1.984,0.583,18.86,106.4412,15.76,16.74,16.2,0,110.6,13.16,16.57,188.9
"2016-02-19 01:10:30",1386792,15.03,228,1.539,0.497,19.05,106.4389,15.76,16.74,16.01,0,110.6,13.16,16.56,190.0
"2016-02-19 01:11:00",1386793,14.41,229.3,0.836,0.444,18.83,106.4297,15.73,16.73,16.01,0,110.6,13.16,16.54,191.3
"2016-02-19 01:11:30",1386794,13.97,230.8,2.892,0.555,18.7,106.4266,15.73,16.73,16.27,0,110.6,13.16,16.53,192.8
"2016-02-19 01:12:00",1386795,14.24,233,1.669,0.436,18.98,106.4254,15.72,16.72,15.9,0,110.6,13.16,16.53,195.0
"2016-02-19 01:12:30",1386796,14.06,236.4,1.655,0.309,19.06,106.4254,15.72,16.72,15.67,0,110.6,13.16,16.53,198.4
"2016-02-19 01:13:00",1386797,14.42,234.4,2.227,0.372,19.07,106.4254,15.72,16.72,15.63,0,110.6,13.16,16.53,196.4
"2016-02-19 01:13:30",1386798,14.17,230.5,1.035,0.25,18.98,106.4254,15.72,16.72,15.68,0,110.6,13.16,16.53,192.5
"2016-02-19 01:14:00",1386799,13.79,229.3,1.33,0.499,18.88,106.4257,15.72,16.72,15.83,0,110.6,13.16,16.53,191.3
"2016-02-19 01:14:30",1386800,13.6,225.1,2.269,0.449,18.94,106.4263,15.72,16.73,15.84,0,110.6,13.16,16.53,187.1
"2016-02-19 01:15:00",1386801,13.13,229.5,3.782,0.874,18.93,106.4299,15.73,16.73,15.81,0,110.6,13.16,16.54,191.5
"2016-02-19 01:15:30",1386802,12.75,238.3,4.748,1.293,19.26,106.4364,15.75,16.72,15.14,0,110.6,13.16,16.56,200.3
"2016-02-19 01:16:00",1386803,15.32,247.1,6.968,0.575,19.26,106.448,15.78,16.74,14.69,0,110.6,13.16,16.59,209.1
"2016-02-19 01:16:30",1386804,14.67,233.1,3.722,0.397,18.83,106.457,15.8,16.74,15.55,0,110.6,13.16,16.61,195.1
"2016-02-19 01:17:00",1386805,14.27,230.4,1.466,0.55,18.77,106.4592,15.81,16.76,15.8,0,110.6,13.16,16.62,192.4
"2016-02-19 01:17:30",1386806,13.93,229.9,2.877,0.35,18.99,106.4592,15.81,16.77,15.55,0,110.6,13.16,16.62,191.9
"2016-02-19 01:18:00",1386807,12.9,227.7,2.387,1.133,18.96,106.4592,15.81,16.78,15.45,0,110.6,13.16,16.62,189.7
"2016-02-19 01:18:30",1386808,13.39,227.5,1.555,0.288,18.84,106.4592,15.81,16.78,15.74,0,110.6,13.15,16.62,189.5
"2016-02-19 01:19:00",1386809,14.25,227.6,3.484,0.927,19.12,106.4592,15.81,16.79,15.37,0,110.6,13.15,16.62,189.6
"2016-02-19 01:19:30",1386810,14.19,239.1,7.855,0.775,19.26,106.4598,15.81,16.79,14.69,0,110.6,13.15,16.62,201.1
"2016-02-19 01:20:00",1386811,11.96,241,6.496,0.421,19.14,106.4702,15.84,16.8,14.83,0,110.6,13.15,16.64,203.0
"2016-02-19 01:20:30",1386812,13.09,232.5,2.79,0.826,18.97,106.4852,15.88,16.82,14.76,0,110.6,13.15,16.68,194.5
"2016-02-19 01:21:00",1386813,13.73,241.9,7.89,0.805,18.97,106.4917,15.89,16.84,15.13,0,110.6,13.15,16.70,203.9
"2016-02-19 01:21:30",1386814,13.69,249.3,4.313,0.562,19.01,106.4931,15.9,16.84,15.06,0,110.6,13.15,16.70,211.3
"2016-02-19 01:22:00",1386815,12.91,234.9,3.135,0.472,18.76,106.4931,15.9,16.85,15.31,0,110.6,13.15,16.70,196.9
"2016-02-19 01:22:30",1386816,13.33,234,2.933,0.348,18.71,106.4931,15.9,16.85,15.59,0,110.6,13.16,16.70,196.0
"2016-02-19 01:23:00",1386817,13.29,233.9,1.694,0.365,18.71,106.4931,15.9,16.85,15.58,0,110.6,13.16,16.70,195.9
"2016-02-19 01:23:30",1386818,12.81,237.5,2.741,0.43,18.83,106.4931,15.9,16.86,15.49,0,110.6,13.16,16.70,199.5
"2016-02-19 01:24:00",1386819,13.02,237.5,2.27,0.483,18.7,106.4931,15.9,16.87,15.57,0,110.6,13.16,16.70,199.5
"2016-02-19 01:24:30",1386820,12.25,235.5,3.98,0.685,18.97,106.4934,15.9,16.88,15.4,0,110.6,13.16,16.70,197.5
"2016-02-19 01:25:00",1386821,13.15,241.7,5.274,0.885,19.08,106.4931,15.9,16.87,15.02,0,110.6,13.16,16.70,203.7
"2016-02-19 01:25:30",1386822,12.79,247.2,3.247,1.101,18.76,106.4931,15.9,16.88,15.37,0,110.6,13.16,16.70,209.2
"2016-02-19 01:26:00",1386823,13.69,251,4.224,1.429,18.75,106.494,15.9,16.87,15.63,0,110.6,13.16,16.71,213.0
"2016-02-19 01:26:30",1386824,13.38,247,3.248,0.719,18.76,106.4931,15.9,16.86,15.58,0,110.6,13.16,16.70,209.0
"2016-02-19 01:27:00",1386825,12.29,247.4,1.323,0.251,18.74,106.49,15.89,16.86,15.68,0,110.6,13.16,16.70,209.4
"2016-02-19 01:27:30",1386826,12.88,246.7,2.66,0.293,18.86,106.4855,15.88,16.87,15.68,0,110.6,13.16,16.68,208.7
"2016-02-19 01:28:00",1386827,12.5,243.4,1.853,0.362,18.73,106.4771,15.85,16.86,15.7,0,110.6,13.16,16.66,205.4
"2016-02-19 01:28:30",1386828,12.42,242.3,2.107,0.392,18.57,106.4624,15.82,16.85,15.77,0,110.6,13.16,16.62,204.3
"2016-02-19 01:29:00",1386829,12.95,245.2,0.987,0.344,18.57,106.4592,15.81,16.84,15.91,0,110.6,13.16,16.62,207.2
"2016-02-19 01:29:30",1386830,12.64,245.7,1.077,0.271,18.61,106.4592,15.81,16.84,16.01,0,110.6,13.16,16.62,207.7
"2016-02-19 01:30:00",1386831,11.4,246.2,1.172,0.543,18.59,106.4602,15.81,16.84,15.96,0,110.6,13.16,16.62,208.2
"2016-02-19 01:30:30",1386832,10.86,245.7,1.282,0.29,18.59,106.4559,15.8,16.82,16.03,0,110.6,13.16,16.61,207.7
"2016-02-19 01:31:00",1386833,10.67,245.3,1.189,0.179,18.59,106.4449,15.77,16.81,16.01,0,110.6,13.16,16.58,207.3
"2016-02-19 01:31:30",1386834,11.8,244.8,0.76,0.29,18.64,106.4294,15.73,16.79,16.04,0,110.6,13.16,16.54,206.8
"2016-02-19 01:32:00",1386835,11.87,245.7,1.02,0.459,18.69,106.4263,15.72,16.76,15.98,0,110.6,13.16,16.53,207.7
"2016-02-19 01:32:30",1386836,11.54,248.7,1.965,0.209,18.77,106.4269,15.73,16.76,15.96,0,110.6,13.16,16.53,210.7
"2016-02-19 01:33:00",1386837,10.89,247.6,2.613,0.231,18.73,106.4219,15.71,16.75,15.97,0,110.6,13.16,16.52,209.6
"2016-02-19 01:33:30",1386838,9.95,254.5,3.726,0.617,18.84,106.4146,15.69,16.73,15.97,0,110.6,13.16,16.50,216.5
"2016-02-19 01:34:00",1386839,9.99,249.3,9.11,0.627,18.79,106.4019,15.66,16.73,15.88,0,110.6,13.16,16.47,211.3
"2016-02-19 01:34:30",1386840,10.59,242,1.749,0.409,18.61,106.3949,15.64,16.72,15.99,0,110.6,13.16,16.45,204.0
"2016-02-19 01:35:00",1386841,10.02,248.1,2.972,0.36,18.63,106.3946,15.64,16.71,16.07,0,110.6,13.16,16.45,210.1
"2016-02-19 01:35:30",1386842,9.5,254.6,2.091,0.311,18.74,106.3943,15.64,16.69,16.04,0,110.6,13.16,16.45,216.6
"2016-02-19 01:36:00",1386843,9.3,255.4,1.479,0.248,18.73,106.3946,15.64,16.71,16.11,0,110.6,13.16,16.45,217.4
"2016-02-19 01:36:30",1386844,9.3,259.4,2.171,0.299,18.66,106.3955,15.65,16.67,16.12,0,110.6,13.16,16.45,221.4
"2016-02-19 01:37:00",1386845,9.47,266.8,2.287,0.459,18.47,106.3907,15.63,16.66,16.35,0,110.6,13.16,16.44,228.8
"2016-02-19 01:37:30",1386846,9.44,261.2,2.073,0.233,18.69,106.3741,15.59,16.66,16.36,0,110.6,13.16,16.40,223.2
"2016-02-19 01:38:00",1386847,10.38,264.8,3.546,0.526,18.86,106.3605,15.56,16.65,16.25,0,110.6,13.16,16.36,226.8
"2016-02-19 01:38:30",1386848,9.99,260,7.296,0.862,18.77,106.3638,15.56,16.62,16.18,0,110.6,13.16,16.37,222.0
"2016-02-19 01:39:00",1386849,9.9,259.3,4.767,0.782,18.69,106.362,15.56,16.6,16.31,0,110.6,13.16,16.37,221.3
"2016-02-19 01:39:30",1386850,9.98,252.7,2.697,0.247,18.52,106.3647,15.57,16.61,16.36,0,110.6,13.16,16.37,214.7
"2016-02-19 01:40:00",1386851,9.58,256.7,3.084,0.536,18.51,106.3624,15.56,16.58,16.44,0,110.6,13.16,16.37,218.7
"2016-02-19 01:40:30",1386852,9.68,272.8,4.095,0.75,18.36,106.3532,15.54,16.58,16.64,0,110.6,13.16,16.34,234.8
"2016-02-19 01:41:00",1386853,10.59,277.8,1.27,0.568,18.22,106.3368,15.5,16.57,16.79,0,110.6,13.16,16.30,239.8
"2016-02-19 01:41:30",1386854,10.63,282.3,1.227,0.425,18.38,106.3327,15.49,16.55,16.89,0,110.6,13.16,16.29,244.3
"2016-02-19 01:42:00",1386855,11.4,280.1,1.807,0.838,18.56,106.3321,15.48,16.53,16.88,0,110.6,13.16,16.29,242.1
"2016-02-19 01:42:30",1386856,10.04,281.4,2.602,0.5,18.53,106.3242,15.46,16.52,16.96,0,110.6,13.17,16.27,243.4
"2016-02-19 01:43:00",1386857,11.32,291.8,4.258,1.733,18.43,106.3116,15.43,16.5,17.26,0,110.6,13.17,16.24,253.8
"2016-02-19 01:43:30",1386858,15.19,298.4,6.392,0.922,18.23,106.2985,15.4,16.49,18.9,0,110.6,13.16,16.20,260.4
"2016-02-19 01:44:00",1386859,15.12,298.7,2.545,0.735,18.16,106.298,15.4,16.46,19.09,0,110.6,13.17,16.20,260.7
"2016-02-19 01:44:30",1386860,16.4,291.4,3.341,0.516,18.3,106.2887,15.37,16.44,18.91,0,110.6,13.17,16.18,253.4
"2016-02-19 01:45:00",1386861,15.79,286.7,2.957,0.898,18.05,106.2699,15.32,16.43,19.13,0,110.6,13.17,16.13,248.7
"2016-02-19 01:45:30",1386862,14.48,289.1,7.344,1.328,17.73,106.2651,15.31,16.41,20.82,0,110.6,13.17,16.12,251.1
"2016-02-19 01:46:00",1386863,18.11,295.7,4.843,0.971,17.57,106.2374,15.24,16.36,21.41,0,110.6,13.17,16.05,257.7
"2016-02-19 01:46:30",1386864,19.54,299.5,5.805,1.82,19.61,106.2238,15.21,16.52,21.8,0,110.6,13.12,16.01,261.5